Flag Weather past 2 weeks in Greenwich Borough, England, United Kingdom

Now
50 °F

Sunny.


Feels Like: 47 °F
Forecast: 43 / 55 °F
Wind: 8 mph from East

Location: Northolt

Current Time: Nov 29, 2014 at 8:53:58 AM

Latest Report: Nov 29, 2014 at 7:50 AM


Visibility: 10 mi

Pressure: 29.80 "Hg

Humidity: 88%

Dew point: 46 °F

Location of Greenwich BoroughLocation

Historic Weather in Greenwich Borough — Graph

°F

Greenwich Borough temperature yesterday

Maximum temperature yesterday: 54 °F (at 1:50 PM)
Minimum temperature yesterday: 48 °F (at 1:50 AM)
Average temperature yesterday: 51 °F

Past Weeks' High & Low Weather Summary

 TemperatureHumidityPressure
High57 °F (Nov 14, 1:50 PM)100% (Nov 14, 9:50 PM)30.33 "Hg (Nov 14, 9:50 PM)
Low30 °F (Nov 24, 5:50 AM)67% (Nov 14, 2:50 PM)29.42 "Hg (Nov 17, 5:50 AM)
Average47 °F92%29.85 "Hg
* Reported Nov 14 7:50 AM — Nov 29 7:50 AM, Greenwich Borough, Weather by CustomWeather, © 2014

Note: Actual official high and low records may vary slightly from our data, if they occured in-between our weather recording intervals... More about our weather records

Advertising

Greenwich Borough weather history for previous 24 hours

 ConditionsComfort  
Time TempWeatherWind HumidityBarometerVisibility
7:50 AM
Nov 29
50 °FSunny.8 mph88%29.80 "Hg10 mi
6:50 AM50 °FClear.6 mph88%29.80 "Hg10 mi
5:50 AM52 °FPassing clouds.6 mph82%29.77 "HgN/A
4:50 AM52 °FMostly cloudy.7 mph82%29.77 "HgN/A
3:50 AM52 °FMostly cloudy.8 mph82%29.74 "HgN/A
2:50 AM52 °FOvercast.9 mph82%29.74 "HgN/A
1:50 AM52 °FOvercast.8 mph88%29.74 "HgN/A
12:50 AM52 °FOvercast.7 mph88%29.74 "HgN/A
11:50 PM
Nov 28
52 °FPassing clouds.8 mph94%29.71 "HgN/A
10:50 PM52 °FOvercast.8 mph94%29.71 "Hg6 mi
9:50 PM52 °FLight rain. Mostly cloudy.10 mph94%29.71 "Hg6 mi
8:50 PM52 °FClear.8 mph88%29.71 "Hg10 mi
7:50 PM52 °FClear.6 mph88%29.71 "Hg10 mi
6:50 PM50 °FClear.9 mph88%29.68 "Hg10 mi
5:50 PM50 °FClear.9 mph94%29.65 "Hg10 mi
4:50 PM52 °FPassing clouds.10 mph88%29.62 "HgN/A
3:50 PM52 °FPartly sunny.12 mph88%29.62 "HgN/A
2:50 PM54 °FPartly sunny.12 mph77%29.62 "HgN/A
1:50 PM54 °FPartly sunny.14 mph82%29.59 "HgN/A
12:50 PM52 °FPartly sunny.14 mph88%29.59 "HgN/A
11:50 AM52 °FPartly sunny.14 mph88%29.59 "Hg5 mi
10:50 AM52 °FPartly sunny.15 mph88%29.59 "Hg4 mi
9:50 AM52 °FBroken clouds.14 mph94%29.59 "Hg4 mi
8:50 AM52 °FPartly sunny.13 mph88%29.59 "HgN/A
Weather by CustomWeather, © 2014

See weather overviewHow to use our weather pages